Flag for Germany Weather past 2 weeks in Lutherstadt Eisleben, Saxony-Anhalt, Germany

Now
67 °F

Overcast.


Feels Like: 67 °F
Forecast: 52 / 63 °F
Wind: 5 mph from South

Location: Leipzig-Schkeuditz

Current Time: Jul 8, 2015 at 2:49:33 AM

Latest Report: Jul 8, 2015 at 2:00 AM


Visibility: 22 mi

Pressure: 29.72 "Hg

Humidity: 88%

Dew point: 64 °F

Location of Lutherstadt EislebenLocation

Historic Weather in Lutherstadt Eisleben — Graph

°F

Lutherstadt Eisleben temperature yesterday

Maximum temperature yesterday: 91 °F (at 7:00 PM)
Minimum temperature yesterday: 61 °F (at 6:00 AM)
Average temperature yesterday: 75 °F

Past Weeks' High & Low Weather Summary

 TemperatureHumidityPressure
High98 °F (Jul 4, 3:00 PM)95% (Jun 23, 4:00 AM)30.25 "Hg (Jun 23, 4:00 AM)
Low49 °F (Jun 25, 4:00 AM)19% (Jul 5, 6:00 PM)29.63 "Hg (Jul 7, 8:00 PM)
Average70 °F57%30.09 "Hg
* Reported Jun 23 1:00 AM — Jul 8 1:00 AM, Lutherstadt Eisleben, Weather by CustomWeather, © 2015

Note: Actual official high and low records may vary slightly from our data, if they occured in-between our weather recording intervals... More about our weather records

Advertising

Lutherstadt Eisleben weather history for previous 24 hours

 ConditionsComfort  
Time TempWeatherWind HumidityBarometerVisibility
1:00 AM
Wed, Jul 8
67 °FOvercast.7 mph90%29.71 "Hg22 mi
10:00 PM
Tue, Jul 7
67 °FLight rain. Overcast.6 mph89%29.71 "Hg31 mi
9:00 PM69 °FThundershowers. Low clouds.8 mph77%29.70 "Hg7 mi
8:00 PM88 °FOvercast.2 mph30%29.63 "Hg31 mi
7:00 PM91 °FScattered clouds.5 mph25%29.67 "Hg31 mi
6:00 PM90 °FPartly sunny.5 mph27%29.71 "Hg31 mi
5:00 PM90 °FScattered clouds.5 mph28%29.75 "Hg31 mi
4:00 PM89 °FPassing clouds.5 mph27%29.79 "Hg31 mi
3:00 PM87 °FPassing clouds.5 mph26%29.82 "Hg31 mi
2:00 PM86 °FPassing clouds.5 mph25%29.85 "Hg31 mi
1:00 PM85 °FPassing clouds.3 mph24%29.89 "Hg28 mi
12:00 PM82 °FPassing clouds.3 mph26%29.92 "Hg28 mi
10:00 AM76 °FPassing clouds.3 mph47%29.97 "Hg28 mi
9:00 AM71 °FPassing clouds.2 mph60%29.99 "Hg25 mi
8:00 AM66 °FPassing clouds.1 mph71%30.01 "Hg25 mi
7:00 AM64 °FSunny.2 mph73%30.03 "Hg31 mi
6:00 AM61 °FSunny.2 mph76%30.03 "Hg31 mi
4:00 AM61 °FClear.2 mph74%30.06 "Hg31 mi
3:00 AM62 °FClear.2 mph71%30.07 "Hg31 mi
2:00 AM63 °FClear.1 mph72%30.07 "Hg31 mi
Weather by CustomWeather, © 2015

See weather overviewHow to use our weather pages